Location: Seattle
(47.6064°N, 122.3308°W)
Time: 21:46:18
(UTC-08:00)

Altair - Visible Passes

Search period start: 26 November 2020 00:00
Search period end: 06 December 2020 00:00
Orbit: 1502 x 1682 km, 47.2° (Epoch: 26 November)

Date Brightness Start Highest point End Pass type
(mag) Time Alt. Az. Time Alt. Az. Time Alt. Az.
26 Nov 9.4 02:12:05 14° ESE 02:12:05 14° ESE 02:13:04 10° ESE visible
26 Nov 8.3 04:10:08 31° SSW 04:10:08 31° SSW 04:15:48 10° SSE visible
26 Nov 8.8 19:19:47 10° S 19:23:11 18° SSE 19:23:11 18° SSE visible
26 Nov 9.5 21:20:36 10° SW 21:21:14 12° SW 21:21:14 12° SW visible
27 Nov 8.6 03:46:49 26° S 03:46:49 26° S 03:50:53 10° SSE visible
27 Nov 8.7 18:55:09 10° S 18:59:51 19° SE 18:59:51 19° SE visible
27 Nov 9.1 20:55:32 10° SW 20:57:54 20° SW 20:57:54 20° SW visible
28 Nov 9.0 03:23:31 19° SSE 03:23:31 19° SSE 03:25:56 10° SSE visible
28 Nov 9.1 05:21:35 11° SW 05:21:35 11° SW 05:22:34 10° SW visible
28 Nov 8.7 18:30:36 10° SSE 18:36:23 18° SE 18:36:29 18° SE visible
28 Nov 8.6 20:30:29 10° SW 20:34:31 28° SSW 20:34:31 28° SSW visible
29 Nov 9.4 03:00:15 13° SSE 03:00:15 13° SSE 03:00:59 10° SSE visible
29 Nov 9.2 04:58:19 11° SW 04:58:19 11° SW 04:58:48 10° SSW visible
29 Nov 8.8 18:06:07 10° SSE 18:11:23 16° SE 18:13:04 16° ESE visible
29 Nov 8.2 20:05:27 10° SW 20:11:07 36° SSW 20:11:07 36° SSW visible
30 Nov 8.9 17:41:46 10° SSE 17:46:23 15° SE 17:49:37 12° ESE visible
30 Nov 7.9 19:40:26 10° SSW 19:47:39 43° S 19:47:39 43° S visible
30 Nov 9.3 21:44:00 10° WSW 21:45:42 17° WSW 21:45:42 17° WSW visible
01 Dec 9.0 17:17:36 10° SSE 17:21:23 13° SE 17:25:08 10° E visible
01 Dec 7.8 19:15:27 10° SSW 19:24:09 44° SE 19:24:09 44° SE visible
01 Dec 8.9 21:18:51 10° WSW 21:22:11 26° WSW 21:22:11 26° WSW visible
02 Dec 9.1 16:53:45 10° SE 16:56:24 11° ESE 16:59:01 10° ESE visible
02 Dec 7.8 18:50:28 10° SSW 18:59:05 41° SE 19:00:36 38° ESE visible
02 Dec 8.4 20:53:40 10° WSW 20:58:38 36° WSW 20:58:38 36° WSW visible
03 Dec 8.0 18:25:31 10° SSW 18:34:01 38° SE 18:37:00 31° ESE visible
03 Dec 7.9 20:28:30 10° WSW 20:35:02 50° SW 20:35:02 50° SW visible
04 Dec 8.2 18:00:35 10° SSW 18:08:57 36° SE 18:13:22 24° E visible
04 Dec 7.5 20:03:21 10° WSW 20:11:24 65° SSW 20:11:24 65° SSW visible
04 Dec 9.4 22:08:03 10° W 22:09:26 16° W 22:09:26 16° W visible
05 Dec 8.3 17:35:41 10° SSW 17:43:53 33° SE 17:49:42 17° E visible
05 Dec 7.3 19:38:12 10° WSW 19:47:37 72° SSE 19:47:44 72° SSE visible
05 Dec 9.1 21:42:51 10° W 21:45:45 23° W 21:45:45 23° W visible
